TimeCST,TemperatureF,Dew PointF,Humidity,Sea Level PressureIn,VisibilityMPH,Wind Direction,Wind SpeedMPH,Gust SpeedMPH,PrecipitationIn,Events,Conditions,WindDirDegrees,DateUTC
12:53 AM,24.1,19.9,84,30.20,10.0,Calm,Calm,-,N/A,,Clear,0,2013-02-12 06:53:00
1:53 AM,21.9,19.0,89,30.22,10.0,Calm,Calm,-,N/A,,Clear,0,2013-02-12 07:53:00
2:53 AM,21.0,18.0,88,30.18,10.0,Calm,Calm,-,N/A,,Clear,0,2013-02-12 08:53:00
3:53 AM,19.0,17.1,92,30.17,9.0,Calm,Calm,-,N/A,,Clear,0,2013-02-12 09:53:00
4:53 AM,21.9,18.0,85,30.18,6.0,Calm,Calm,-,N/A,,Clear,0,2013-02-12 10:53:00
5:53 AM,21.9,19.0,89,30.19,8.0,Calm,Calm,-,N/A,,Clear,0,2013-02-12 11:53:00
6:53 AM,19.0,16.0,88,30.17,8.0,Calm,Calm,-,N/A,,Clear,0,2013-02-12 12:53:00
7:24 AM,17.6,14.0,86,30.13,7.0,Calm,Calm,-,N/A,,Scattered Clouds,0,2013-02-12 13:24:00
7:33 AM,17.6,12.2,79,30.13,7.0,Calm,Calm,-,N/A,,Mostly Cloudy,0,2013-02-12 13:33:00
7:53 AM,19.9,18.0,92,30.18,4.0,SSW,3.5,-,N/A,,Mostly Cloudy,210,2013-02-12 13:53:00
8:03 AM,19.4,15.8,86,30.15,5.0,Calm,Calm,-,N/A,,Scattered Clouds,0,2013-02-12 14:03:00
8:53 AM,25.0,21.9,88,30.18,5.0,Calm,Calm,-,N/A,,Clear,0,2013-02-12 14:53:00
9:53 AM,28.9,25.0,85,30.16,7.0,Calm,Calm,-,N/A,,Clear,0,2013-02-12 15:53:00
10:53 AM,33.1,26.1,75,30.15,9.0,South,4.6,-,N/A,,Clear,180,2013-02-12 16:53:00
11:53 AM,37.0,25.0,62,30.12,10.0,South,5.8,-,N/A,,Clear,180,2013-02-12 17:53:00
12:53 PM,41.0,23.0,49,30.09,10.0,South,5.8,-,N/A,,Clear,190,2013-02-12 18:53:00
1:53 PM,44.1,21.9,42,30.07,10.0,South,8.1,-,N/A,,Clear,190,2013-02-12 19:53:00
2:53 PM,45.0,23.0,42,30.04,10.0,SSW,8.1,-,N/A,,Clear,210,2013-02-12 20:53:00
3:53 PM,45.0,23.0,42,30.01,10.0,South,10.4,-,N/A,,Clear,180,2013-02-12 21:53:00
4:53 PM,44.1,23.0,43,30.00,10.0,SSW,8.1,-,N/A,,Clear,200,2013-02-12 22:53:00
5:53 PM,39.0,23.0,53,30.00,10.0,South,9.2,-,N/A,,Clear,190,2013-02-12 23:53:00
6:53 PM,36.0,21.9,57,30.00,10.0,SSW,5.8,-,N/A,,Clear,200,2013-02-13 00:53:00
7:53 PM,32.0,21.9,66,30.00,10.0,SSW,5.8,-,N/A,,Clear,210,2013-02-13 01:53:00
8:53 PM,30.0,21.0,69,29.99,10.0,South,6.9,-,N/A,,Clear,190,2013-02-13 02:53:00
9:53 PM,30.0,21.0,69,29.98,10.0,South,4.6,-,N/A,,Clear,190,2013-02-13 03:53:00
10:53 PM,27.0,19.9,75,29.98,10.0,Calm,Calm,-,N/A,,Clear,0,2013-02-13 04:53:00
11:53 PM,25.0,19.0,78,29.97,10.0,Calm,Calm,-,N/A,,Clear,0,2013-02-13 05:53:00